Weather History for Hutchinson, MN

Change the Weather History Date:

Thursday, February 21, 2013

  Actual Average Record
Temperature  
Mean Temperature 11 °F -  
Max Temperature 20 °F 33 °F 53 °F (1981)
Min Temperature 2 °F 14 °F -23 °F (2001)
Degree Days  
Heating Degree Days 54    
Moisture  
Dew Point 7 °F    
Average Humidity 76    
Maximum Humidity 84    
Minimum Humidity 70    
Precipitation  
Precipitation 0.00 in - - ()
Sea Level Pressure  
Sea Level Pressure 30.25 in    
Wind  
Wind Speed 9 mph (NE)    
Max Wind Speed 16 mph    
Max Gust Speed -    
Visibility 10 miles    
Events      
Averages and records for this station are not official NWS values.
T = Trace of Precipitation, MM = Missing Value Source: NWS Daily Summary

Daily Weather History Graph

Daily Weather History Graph

Search for Another Location

Airport:

Trip Planner

Search our weather history database for the weather conditions in past years. The results will help you decide how hot, cold, wet, or windy it might be!

Date:

Astronomy

Feb. 21, 2013 Rise Set
Actual Time 7:08 AM CST 5:54 PM CST
Civil Twilight 6:38 AM CST 6:24 PM CST
Nautical Twilight 6:04 AM CST 6:58 PM CST
Astronomical Twilight 5:30 AM CST 7:32 PM CST
Moon 2:03 PM CST (2/21) 4:20 AM CST (2/21)
Length of Visible Light 11h 45m
Length of Day
10h 46m
Waxing Gibbous, 84% of the Moon is Illuminated
Feb 21
Waxing Gibbous
Feb 25
Full
Mar 4
Last Quarter
Mar 11
New
Mar 19
First Quarter

Hourly Weather History & Observations

Time (CST) Temp. Windchill Dew Point Humidity Pressure Visibility Wind Dir Wind Speed Gust Speed Precip Events Conditions
12:08 AM 2.3 °F -5.2 °F -1.7 °F 84% 30.35 in 10.0 mi NE 3.5 mph - N/A   Clear
12:28 AM 5.4 °F -5.2 °F 0.5 °F 80% 30.35 in 10.0 mi NE 5.8 mph - N/A   Clear
12:48 AM 6.6 °F -2.2 °F 1.6 °F 80% 30.36 in 10.0 mi NE 4.6 mph - N/A   Clear
1:08 AM 5.0 °F -8.1 °F -0.0 °F 80% 30.36 in 10.0 mi NE 8.1 mph - N/A   Clear
1:28 AM 6.6 °F -6.1 °F 1.4 °F 79% 30.36 in 10.0 mi NE 8.1 mph - N/A   Clear
1:48 AM 5.7 °F -6.1 °F 0.5 °F 79% 30.37 in 10.0 mi NE 6.9 mph - N/A   Clear
2:08 AM 4.5 °F -7.6 °F -0.6 °F 80% 30.37 in 10.0 mi ENE 6.9 mph - N/A   Clear
2:28 AM 6.1 °F -5.6 °F 1.0 °F 80% 30.38 in 10.0 mi ENE 6.9 mph - N/A   Clear
2:34 AM 6.6 °F -3.7 °F 1.4 °F 79% 30.38 in 10.0 mi ENE 5.8 mph - N/A   Clear
3:05 AM 6.8 °F -3.5 °F 1.4 °F 79% 30.38 in 10.0 mi ENE 5.8 mph - N/A   Clear
3:25 AM 6.8 °F -4.8 °F 1.4 °F 79% 30.37 in 10.0 mi ENE 6.9 mph - N/A   Clear
3:45 AM 5.0 °F -8.1 °F -0.4 °F 78% 30.37 in 10.0 mi ENE 8.1 mph - N/A   Clear
4:05 AM 5.0 °F -10.0 °F -0.4 °F 78% 30.36 in 10.0 mi ENE 10.4 mph - N/A   Clear
4:25 AM 5.0 °F -10.8 °F -0.4 °F 78% 30.34 in 10.0 mi ENE 11.5 mph - N/A   Clear
4:45 AM 5.0 °F -10.8 °F -0.4 °F 78% 30.33 in 10.0 mi ENE 11.5 mph - N/A   Clear
5:03 AM 4.6 °F -11.3 °F 0.1 °F 82% 30.32 in 10.0 mi NE 11.5 mph - N/A   Clear
5:08 AM 4.5 °F -12.3 °F -0.0 °F 82% 30.31 in 10.0 mi NE 12.7 mph - N/A   Clear
5:48 AM 5.9 °F -11.8 °F 1.6 °F 82% 30.26 in 10.0 mi NE 15.0 mph - N/A   Clear
6:08 AM 6.6 °F -5.0 °F 2.3 °F 82% 30.31 in 10.0 mi East 6.9 mph - N/A   Clear
6:29 AM 4.3 °F -7.8 °F -0.2 °F 82% 30.40 in 10.0 mi SE 6.9 mph - N/A   Clear
6:48 AM 3.7 °F -7.1 °F -0.4 °F 83% 30.38 in 10.0 mi East 5.8 mph - N/A   Clear
7:08 AM 5.4 °F -5.2 °F 1.2 °F 83% 30.36 in 10.0 mi ENE 5.8 mph - N/A   Clear
7:21 AM 6.6 °F -5.0 °F 2.7 °F 84% 30.37 in 10.0 mi ENE 6.9 mph - N/A   Clear
7:50 AM - - - N/A% - - North - - N/A   Unknown
8:19 AM - - - N/A% - - North - - N/A   Unknown
8:28 AM 9.1 °F -7.0 °F 4.1 °F 80% 30.33 in - NE 13.8 mph - N/A   Unknown
8:48 AM 9.1 °F -5.6 °F 4.5 °F 81% 30.32 in 10.0 mi ENE 11.5 mph - N/A   Clear
9:08 AM 9.1 °F -4.0 °F 4.1 °F 80% 30.32 in 10.0 mi ENE 9.2 mph - N/A   Clear
9:28 AM 9.3 °F -5.4 °F 4.1 °F 79% 30.30 in 10.0 mi ENE 11.5 mph - N/A   Clear
9:48 AM 11.7 °F -0.9 °F 5.9 °F 78% 30.32 in 10.0 mi ENE 9.2 mph - N/A   Clear
10:08 AM 11.7 °F -0.9 °F 5.4 °F 76% 30.33 in 10.0 mi East 9.2 mph - N/A   Clear
10:29 AM 14.0 °F 2.0 °F 7.5 °F 75% 30.34 in 10.0 mi East 9.2 mph - N/A   Clear
11:08 AM 14.0 °F 2.9 °F 7.3 °F 75% 30.32 in 10.0 mi East 8.1 mph - N/A   Clear
11:29 AM 16.5 °F 6.0 °F 9.3 °F 73% 30.33 in - East 8.1 mph - N/A   Clear
11:48 AM 16.7 °F 5.3 °F 9.3 °F 73% 30.33 in - East 9.2 mph - N/A   Clear
12:08 PM 17.1 °F 4.3 °F 9.5 °F 72% 30.30 in - ENE 11.5 mph - N/A   Clear
12:28 PM 17.1 °F 4.3 °F 9.9 °F 73% 30.29 in - NE 11.5 mph - N/A   Clear
12:48 PM 17.2 °F 4.5 °F 10.2 °F 74% 30.28 in - NE 11.5 mph - N/A   Clear
1:08 PM 17.8 °F 4.6 °F 10.2 °F 72% 30.28 in - NE 12.7 mph - N/A   Clear
1:28 PM 19.2 °F 7.7 °F 11.7 °F 72% 30.26 in - NE 10.4 mph - N/A   Clear
1:48 PM 19.2 °F 6.4 °F 11.7 °F 72% 30.25 in - NE 12.7 mph - N/A   Clear
2:08 PM 19.2 °F 5.8 °F 11.5 °F 72% 30.24 in - NE 13.8 mph - N/A   Clear
2:29 PM 19.6 °F 7.4 °F 11.7 °F 71% 30.23 in - NE 11.5 mph - N/A   Clear
2:48 PM 19.8 °F 5.4 °F 11.7 °F 71% 30.21 in - NE 16.1 mph - N/A   Clear
3:08 PM 19.8 °F 5.4 °F 11.3 °F 70% 30.20 in - NE 16.1 mph - N/A   Clear
3:28 PM 20.1 °F 5.9 °F 12.2 °F 71% 30.19 in - NE 16.1 mph - N/A   Clear
3:48 PM 20.1 °F 6.4 °F 12.0 °F 71% 30.19 in - NE 15.0 mph - N/A   Clear
4:07 PM 20.3 °F 7.7 °F 12.4 °F 71% 30.19 in - NE 12.7 mph - N/A   Clear
4:28 PM 20.3 °F 7.7 °F 12.2 °F 71% 30.19 in - NE 12.7 mph - N/A   Clear
4:47 PM 20.1 °F 7.5 °F 12.2 °F 71% 30.18 in - NE 12.7 mph - N/A   Clear
5:08 PM 20.1 °F 6.9 °F 12.2 °F 71% 30.17 in - NE 13.8 mph - N/A   Clear
5:28 PM 19.4 °F 6.0 °F 11.5 °F 71% 30.17 in - NE 13.8 mph - N/A   Clear
5:48 PM 19.2 °F 6.4 °F 11.3 °F 71% 30.17 in - NE 12.7 mph - N/A   Scattered Clouds
6:08 PM 19.2 °F 6.4 °F 11.5 °F 72% 30.17 in - NE 12.7 mph - N/A   Scattered Clouds
6:20 PM 19.2 °F 6.4 °F 11.5 °F 72% 30.17 in - NE 12.7 mph - N/A   Clear
6:48 PM 19.2 °F 6.4 °F 11.5 °F 72% 30.15 in - NE 12.7 mph - N/A   Scattered Clouds
7:08 PM 19.4 °F 6.0 °F 11.8 °F 72% 30.15 in - NE 13.8 mph - N/A   Scattered Clouds
7:28 PM 19.4 °F 6.6 °F 12.2 °F 74% 30.14 in - NE 12.7 mph - N/A   Mostly Cloudy
7:48 PM 19.8 °F 7.1 °F 12.2 °F 72% 30.14 in - NE 12.7 mph - N/A   Mostly Cloudy
8:08 PM 19.6 °F 7.4 °F 12.6 °F 74% 30.14 in - NE 11.5 mph - N/A   Scattered Clouds
8:28 PM 19.4 °F 7.2 °F 12.6 °F 75% 30.13 in - NE 11.5 mph - N/A   Mostly Cloudy
8:48 PM 19.8 °F 8.3 °F 12.7 °F 74% 30.13 in - ENE 10.4 mph - N/A   Overcast
9:08 PM 20.1 °F 9.5 °F 13.3 °F 75% 30.12 in - NE 9.2 mph - N/A   Overcast
9:21 PM 20.3 °F 9.8 °F 13.5 °F 75% 30.12 in - NE 9.2 mph - N/A   Overcast
9:41 PM 20.1 °F 9.5 °F 13.5 °F 75% 30.10 in - NE 9.2 mph - N/A   Overcast
10:08 PM 20.3 °F 9.0 °F 13.5 °F 75% 30.09 in - NE 10.4 mph - N/A   Overcast
10:28 PM 20.3 °F 9.8 °F 14.0 °F 77% 30.08 in - NE 9.2 mph - N/A   Overcast
10:48 PM 20.3 °F 9.8 °F 14.0 °F 77% 30.06 in - NE 9.2 mph - N/A   Overcast
11:08 PM 20.3 °F 9.0 °F 14.5 °F 78% 30.05 in - NE 10.4 mph - N/A   Overcast
11:28 PM 20.3 °F 9.0 °F 14.9 °F 80% 30.05 in - NE 10.4 mph - N/A   Overcast
11:42 PM 20.8 °F 9.0 °F 15.6 °F 80% 30.04 in - NE 11.5 mph - N/A   Overcast